This is the latest recevied weather packets stored in our database for station/object KK6MIG-13. If no packets are shown the sender has not sent any weather packets the latest 1 day(s).
| Time | Temp. | Humidity | Pressure | Rain* | Wind** | Luminosity | Snow |
|---|---|---|---|---|---|---|---|
| 1778023815 | 15° C | 1% | 1014.5 hPa | 0 mm | 4.92 m/s, 248° | 355 W/m² | - |
| 1778023812 | 15° C | 1% | 1014.5 hPa | 0 mm | 4.92 m/s, 221° | 359 W/m² | - |
| 1778023687 | 15° C | 1% | 1014.5 hPa | 0 mm | 4.92 m/s, 249° | 357 W/m² | - |
| 1778023628 | 15° C | 1% | 1014.6 hPa | 0 mm | 4.47 m/s, 224° | 360 W/m² | - |
| 1778023567 | 15° C | 1% | 1014.5 hPa | 0 mm | 4.92 m/s, 232° | 371 W/m² | - |
| 1778023501 | 15° C | 1% | 1014.5 hPa | 0 mm | 4.92 m/s, 227° | 376 W/m² | - |
| 1778023441 | 15° C | 1% | 1014.6 hPa | 0 mm | 4.92 m/s, 296° | 383 W/m² | - |
| 1778023381 | 15° C | 1% | 1014.6 hPa | 0 mm | 5.36 m/s, 218° | 396 W/m² | - |
| 1778023321 | 15° C | 1% | 1014.6 hPa | 0 mm | 5.36 m/s, 252° | 408 W/m² | - |
| 1778023274 | 15° C | 1% | 1014.6 hPa | 0 mm | 4.92 m/s, 253° | 455 W/m² | - |
| 1778023270 | 15° C | 1% | 1014.6 hPa | 0 mm | 4.92 m/s, 233° | 475 W/m² | - |
| 1778023266 | 15° C | 1% | 1014.6 hPa | 0 mm | 4.92 m/s, 262° | 431 W/m² | - |
| 1778023077 | 15° C | 1% | 1014.6 hPa | 0 mm | 4.92 m/s, 207° | 466 W/m² | - |
| 1778023016 | 15° C | 1% | 1014.6 hPa | 0 mm | 4.92 m/s, 217° | 475 W/m² | - |
| 1778022955 | 15° C | 1% | 1014.6 hPa | 0 mm | 4.92 m/s, 241° | 462 W/m² | - |
| 1778022892 | 15° C | 1% | 1014.6 hPa | 0 mm | 4.92 m/s, 231° | 490 W/m² | - |
| 1778022832 | 15° C | 1% | 1014.6 hPa | 0 mm | 4.92 m/s, 226° | 496 W/m² | - |
| 1778022769 | 15° C | 1% | 1014.6 hPa | 0 mm | 4.92 m/s, 262° | 499 W/m² | - |
| 1778022709 | 15° C | 1% | 1014.6 hPa | 0 mm | 4.92 m/s, 246° | 513 W/m² | - |
| 1778022649 | 15° C | 1% | 1014.5 hPa | 0 mm | 4.92 m/s, 211° | 466 W/m² | - |
| 1778022588 | 15° C | 1% | 1014.5 hPa | 0 mm | 4.92 m/s, 221° | 475 W/m² | - |
| 1778022528 | 15° C | 1% | 1014.6 hPa | 0 mm | 4.92 m/s, 246° | 489 W/m² | - |
| 1778022468 | 15° C | 1% | 1014.5 hPa | 0 mm | 4.92 m/s, 250° | 452 W/m² | - |
| 1778022407 | 15° C | 1% | 1014.5 hPa | 0 mm | 4.92 m/s, 229° | 443 W/m² | - |
| 1778022347 | 15° C | 1% | 1014.5 hPa | 0 mm | 4.92 m/s, 221° | 441 W/m² | - |
* Rain latest hour (hover to see other rain measurements)
** Current wind speed in m/s (hover to see current wind gust speed)